Theta_e
309 309 312 311 311 299 306 307 302 305 311 307 303 304 306 306 303 300 307 304 306 310 312 315 316 317 319 321 322 324 326 327 330 333 333 335 334 336 340 340 340 346 348 352 352 356 355 356 356 355 358 359 361 362 363 365 367 366 365 364 363 363 363
309 312 312 312 312 311 308 303 306 312 313 311 305 297 301 300 298 301 305 302 304 303 300 312 313 314 316 319 320 322 325 327 327 331 334 334 331 334 337 340 346 347 348 349 353 355 356 356 356 357 359 360 362 362 364 364 366 366 366 365 363 363 363
308 312 311 309 312 313 306 306 314 305 300 299 304 302 294 295 296 299 303 305 305 306 306 309 310 312 315 318 321 321 322 325 327 329 332 334 335 335 335 339 342 346 349 350 355 354 355 357 359 359 359 359 360 362 364 365 365 366 365 364 364 363 363
306 308 307 298 304 310 311 311 306 311 308 303 300 302 303 302 297 298 299 303 301 309 310 311 311 313 315 316 318 319 321 323 325 327 328 333 334 335 335 338 342 347 346 347 354 354 354 356 358 358 358 358 359 362 364 365 366 367 367 364 364 362 363
304 298 303 301 304 303 304 304 303 306 306 310 308 307 302 300 298 299 299 297 303 310 314 314 315 315 315 316 316 319 321 322 323 325 326 329 333 334 335 336 337 341 343 342 349 354 354 356 358 359 358 359 359 361 362 363 365 365 364 364 364 365 364
299 300 306 306 306 306 305 304 303 306 304 302 299 298 307 304 300 296 299 298 308 312 315 314 315 317 317 317 318 318 320 321 324 324 325 328 330 334 336 338 339 339 341 346 349 348 354 354 356 357 357 358 359 359 360 362 363 363 363 363 364 364 365
298 303 306 308 308 308 306 307 305 307 307 306 302 295 300 304 303 305 304 302 305 317 317 317 315 316 316 318 318 317 318 320 320 323 326 328 331 332 333 335 339 342 344 346 347 348 352 353 355 357 358 357 357 359 360 361 361 362 363 363 363 365 363
303 305 307 307 308 306 303 306 307 306 303 305 304 304 306 303 304 301 301 299 304 314 319 319 317 319 318 320 319 319 318 318 320 322 325 329 331 334 334 335 336 340 343 347 349 349 351 353 355 356 357 357 358 359 359 359 359 361 361 361 361 364 362
295 297 302 302 306 306 303 302 306 307 307 307 307 308 308 302 304 305 301 296 302 312 317 319 318 316 316 316 318 319 318 321 321 321 323 326 333 334 333 335 337 339 339 343 351 352 357 355 353 356 356 357 357 358 358 359 359 360 359 361 360 363 362
286 286 288 291 295 299 303 305 305 307 306 306 304 300 303 298 305 307 303 303 309 314 319 317 316 316 318 318 318 319 320 321 320 322 323 327 330 335 335 337 337 339 342 343 353 354 356 353 353 356 357 357 357 358 358 360 358 359 358 359 360 361 362
291 294 298 300 302 300 298 301 303 304 307 307 307 305 301 299 305 304 306 308 308 309 313 315 316 317 316 315 317 318 319 321 322 326 328 328 329 334 333 337 338 349 354 350 355 358 350 352 352 354 355 356 357 358 359 359 359 359 359 358 360 361 362
296 298 298 299 300 297 299 299 300 303 303 305 304 301 300 308 304 298 307 312 307 309 313 314 317 318 319 317 318 317 320 321 321 322 327 335 330 332 334 337 338 339 349 352 353 355 353 352 353 353 355 356 357 358 358 359 359 358 358 358 359 361 361
295 297 297 298 298 298 298 299 300 300 302 303 302 302 305 306 303 300 308 311 310 312 314 316 318 321 321 317 322 323 323 323 327 329 326 325 327 334 335 343 345 346 343 352 356 353 353 353 353 352 353 355 357 358 359 360 358 359 360 358 358 359 362
294 295 296 297 296 296 297 298 299 301 301 301 303 304 305 305 305 308 308 311 310 313 314 322 321 324 323 323 325 325 325 326 329 329 327 323 323 324 326 330 333 343 345 349 355 356 358 354 353 351 352 356 355 356 357 358 359 359 359 359 360 360 361
292 294 296 296 296 295 294 297 299 300 301 302 303 304 305 307 306 306 306 309 309 315 319 322 324 325 323 324 324 325 329 329 329 331 330 329 332 331 334 338 338 340 343 346 352 358 359 357 354 352 353 355 355 355 357 358 359 359 359 360 360 361 363
289 293 294 294 295 295 294 295 298 299 299 299 302 301 304 304 304 305 306 305 306 314 317 320 324 322 323 322 323 326 329 332 333 331 331 333 334 334 334 338 344 345 343 344 347 352 355 355 354 353 355 353 353 353 355 356 357 358 359 359 360 365 365
288 292 294 294 294 293 290 292 296 299 301 302 304 305 306 306 307 304 301 304 310 313 319 321 321 321 323 323 328 331 332 337 333 335 333 334 337 338 341 338 338 344 346 345 346 348 352 354 353 353 354 353 354 355 355 356 357 357 357 358 362 366 366
287 292 294 294 291 284 286 298 301 302 300 301 300 301 304 307 308 307 310 310 313 317 322 320 321 322 325 327 327 327 327 336 338 335 337 337 338 340 342 345 347 346 352 352 356 355 352 356 355 354 355 353 355 355 355 357 357 358 359 360 362 362 365
287 291 292 287 283 285 298 301 303 305 305 305 304 304 306 306 309 310 310 311 314 320 321 321 323 324 326 327 325 326 332 333 333 332 333 335 336 339 341 343 346 350 354 355 356 357 357 352 351 355 352 353 355 355 355 355 356 361 359 360 361 363 365
290 287 287 279 283 295 299 301 303 305 305 305 305 303 305 307 309 310 310 312 315 318 319 320 323 325 325 326 328 331 329 329 328 328 329 331 334 336 340 342 345 349 350 353 354 357 360 357 349 353 353 352 352 353 354 354 355 357 360 361 361 363 365
285 286 286 286 294 292 295 296 299 302 301 304 304 299 302 308 310 314 315 316 318 318 319 320 322 324 325 323 325 325 325 324 325 326 328 331 333 336 340 344 346 351 353 355 357 358 356 356 351 348 352 351 351 352 353 353 356 355 357 362 361 363 364
291 285 284 286 286 282 290 298 306 311 311 313 313 309 303 312 315 317 316 315 316 316 318 320 322 322 318 316 317 323 322 322 323 325 328 331 332 334 338 344 348 352 354 356 357 356 353 351 352 348 352 352 351 353 352 352 355 355 355 358 361 365 364
290 287 283 283 281 288 300 303 307 308 309 311 314 306 301 312 315 315 314 313 315 315 316 319 321 319 312 312 318 318 319 319 322 323 326 328 330 332 336 342 346 349 353 355 355 357 354 346 348 347 351 353 350 352 354 352 354 354 355 358 360 363 364
290 289 285 282 288 287 301 305 305 308 310 310 308 294 294 309 314 314 314 312 313 315 318 318 319 317 315 315 314 317 317 319 320 322 322 324 326 329 335 343 348 352 354 355 354 351 349 348 346 347 349 352 353 355 351 352 353 355 356 359 363 366 367
289 288 287 289 290 300 304 305 307 309 310 306 293 289 297 309 312 311 313 311 312 314 316 318 316 317 314 314 316 317 318 318 318 320 322 324 326 328 332 339 346 350 353 352 353 353 351 352 345 344 348 352 354 355 356 356 355 355 358 362 365 368 368
287 289 286 286 291 298 303 308 307 309 302 293 292 300 305 306 309 310 310 310 311 313 314 314 314 315 315 315 317 317 316 317 317 318 320 322 324 328 331 337 342 350 352 352 354 353 351 349 347 348 353 357 359 363 359 354 357 357 361 364 365 368 369
291 289 287 284 281 297 305 306 306 307 297 297 300 302 305 309 308 308 309 309 310 312 311 312 313 313 312 313 314 315 316 315 315 315 317 318 319 322 327 334 341 347 352 354 352 353 349 349 350 351 351 362 364 362 357 361 358 362 362 364 367 369 369
288 288 285 285 295 301 306 305 298 301 302 304 305 304 301 304 308 308 308 309 311 312 312 312 312 312 312 313 314 314 314 314 314 315 315 317 319 323 327 333 342 347 351 354 353 353 349 352 352 353 356 365 363 360 361 367 362 364 365 366 369 368 368
292 290 292 299 303 304 306 308 307 306 306 308 307 306 304 303 305 309 308 308 310 312 313 312 311 310 310 311 313 311 312 313 313 313 314 315 317 319 324 334 342 347 352 353 353 353 355 357 356 359 360 361 363 362 365 369 371 366 366 367 367 367 366
301 300 301 304 304 304 304 307 309 307 307 308 307 306 305 306 305 306 307 308 309 311 313 311 310 310 311 311 311 311 312 311 312 314 314 315 318 320 328 334 340 346 354 352 355 352 353 354 355 360 360 359 362 363 364 368 368 368 367 368 368 368 367
294 288 302 301 302 303 304 306 307 308 307 306 307 306 307 306 307 306 309 310 311 312 313 313 311 311 311 311 311 311 311 311 312 313 313 315 317 321 328 332 338 347 354 351 352 353 352 353 354 353 357 359 365 367 368 363 363 369 369 369 367 368 367
292 292 297 299 302 304 305 307 304 303 305 306 307 308 308 309 309 310 309 310 310 312 311 313 312 312 312 311 311 311 311 312 313 313 314 314 317 323 329 332 340 347 352 352 354 358 359 363 359 355 356 359 363 365 364 363 364 369 370 368 367 368 365
294 297 298 299 302 304 305 304 303 304 304 305 306 308 309 309 309 309 310 311 311 311 312 314 313 312 313 312 312 312 312 313 313 314 313 314 318 325 327 331 339 344 348 351 353 354 357 361 363 365 362 362 364 365 365 365 371 369 369 366 368 367 365
289 289 293 297 292 292 297 300 302 304 306 306 307 307 308 309 309 309 308 310 311 312 313 314 314 313 313 314 314 313 312 313 315 317 316 315 318 324 328 331 336 342 345 348 349 350 352 355 357 360 363 367 367 365 366 368 371 368 368 367 368 366 364
286 295 297 299 298 297 298 300 303 305 307 307 306 306 307 308 310 310 308 308 309 311 314 315 314 314 314 315 316 315 314 314 316 317 320 317 319 323 327 330 333 337 340 343 345 344 345 349 351 354 358 361 365 369 373 371 370 369 368 365 364 363 362
296 298 298 300 298 296 298 302 304 304 307 306 306 307 308 309 310 310 309 309 308 310 312 314 315 315 315 316 316 315 315 314 315 318 321 321 321 325 327 329 331 331 333 337 341 342 343 345 349 352 353 356 359 363 367 372 372 370 369 365 361 360 361
294 300 300 300 300 300 302 303 304 305 306 306 305 307 308 309 309 310 310 310 311 311 312 312 315 317 316 316 316 316 315 315 317 318 319 321 321 323 324 328 329 328 330 333 338 341 341 339 340 342 343 346 353 359 365 368 371 370 367 366 362 363 364
Wind_Speed
15 20 17 19 17 14 11 14 17 16 11 13 12 14 14 14 13 14 9 11 14 12 12 13 15 16 19 22 16 12 15 18 17 15 16 16 17 19 18 18 17 18 17 19 19 21 20 21 21 22 21 21 22 21 21 23 22 21 22 21 20 18 18
10 13 16 17 19 17 12 16 14 13 15 14 12 12 10 12 13 10 11 15 13 14 13 14 16 16 16 19 21 18 14 14 17 17 16 17 19 19 21 22 21 22 23 25 22 21 23 23 24 24 23 23 21 20 22 23 23 23 22 21 20 19 19
9 14 15 14 19 22 21 15 8 15 14 17 14 10 15 13 14 10 10 13 13 13 10 10 17 18 17 16 17 21 19 15 15 17 20 21 19 17 16 18 19 18 17 20 20 21 23 23 23 23 23 23 22 21 21 23 24 24 24 20 20 18 19
8 13 11 14 13 19 24 23 20 13 14 15 14 13 10 9 12 11 13 13 12 10 9 13 15 18 18 19 17 19 22 21 18 17 17 19 19 17 18 18 15 14 16 21 23 23 23 23 23 22 24 22 25 23 23 22 22 21 21 21 19 20 20
10 12 11 14 15 14 17 18 18 13 11 11 13 14 15 12 11 11 9 11 11 10 9 11 12 15 20 20 19 17 18 21 23 22 18 17 20 21 20 19 21 20 19 21 22 21 21 22 21 21 22 24 23 22 23 23 23 24 24 22 21 19 19
12 12 12 16 18 17 16 17 19 15 15 15 18 17 15 16 13 8 9 11 7 11 12 13 15 9 8 16 20 18 18 18 17 18 21 19 18 20 19 21 21 20 20 17 13 17 18 20 21 22 21 22 23 23 22 23 23 22 23 22 21 20 19
12 12 14 15 17 19 20 17 16 19 17 15 15 15 16 14 15 14 11 11 11 5 4 8 13 14 11 10 15 18 18 19 19 16 18 19 18 19 20 20 21 20 17 17 19 23 21 21 21 23 22 22 22 24 23 22 23 24 23 23 21 19 19
14 18 15 14 15 17 17 14 13 15 20 18 15 14 14 15 16 14 12 13 10 4 7 3 7 9 8 7 8 9 12 15 18 18 18 18 17 15 17 18 17 19 18 20 18 18 19 18 19 22 21 21 22 22 22 22 24 25 23 21 21 20 20
9 12 12 15 14 15 15 15 16 20 18 24 21 16 13 15 17 17 14 14 11 8 10 1 2 9 10 10 11 13 13 9 10 16 17 15 15 16 18 16 17 19 19 16 13 13 14 17 20 20 20 21 21 21 21 22 22 24 22 21 21 21 21
13 12 14 14 13 13 15 17 18 20 24 23 20 20 15 13 10 16 13 13 12 13 10 11 7 6 6 5 6 8 8 8 12 11 14 14 14 14 16 15 14 14 16 14 15 17 17 20 20 19 19 21 21 21 23 22 22 22 22 21 22 22 21
13 10 8 10 7 8 9 12 20 26 24 25 22 12 15 17 10 15 15 13 9 17 17 14 13 10 13 12 8 8 9 11 6 6 4 4 12 15 16 13 10 7 10 17 15 17 20 22 21 20 21 21 20 19 22 22 20 21 21 21 21 21 22
18 20 18 17 16 14 14 16 16 15 17 24 24 17 15 12 11 16 15 13 12 11 10 10 12 14 12 7 11 14 6 3 9 11 5 2 1 5 12 9 9 12 11 16 17 19 21 21 20 19 20 20 20 19 21 20 20 20 18 20 21 21 20
18 18 20 19 17 16 17 17 18 18 15 15 19 19 21 19 15 14 14 16 14 14 12 6 5 7 5 1 8 11 6 8 10 7 2 8 10 8 8 7 9 6 6 8 16 18 19 20 20 20 19 19 18 17 17 18 19 21 20 20 21 21 20
16 17 17 17 18 17 18 18 19 18 16 14 14 15 17 22 21 19 15 14 18 16 7 12 6 3 4 6 1 6 5 8 7 4 1 6 9 10 11 12 11 9 12 15 14 17 17 19 19 20 18 18 19 19 19 20 18 19 18 19 19 21 21
16 17 17 18 19 20 21 20 20 20 18 18 20 18 17 19 20 20 21 19 16 13 13 5 7 8 4 6 5 6 7 2 2 7 9 7 12 13 12 13 9 2 8 9 11 13 15 17 18 18 17 18 19 20 19 20 19 18 19 19 20 21 19
13 15 15 17 18 20 22 22 21 21 20 19 17 17 17 17 19 20 19 19 15 12 17 6 8 10 8 7 5 3 2 9 7 8 8 7 9 10 10 9 11 11 6 8 10 13 16 18 18 17 15 17 19 20 19 20 20 19 19 19 20 17 17
14 14 15 16 17 17 19 22 21 21 20 18 18 20 18 18 16 17 18 16 12 14 8 8 8 8 8 8 7 7 5 4 4 6 8 9 9 10 12 10 9 9 10 10 7 13 15 16 17 18 18 18 18 18 19 19 18 20 20 20 18 16 17
11 14 16 15 13 16 15 10 17 19 21 20 21 18 18 18 16 14 15 16 15 8 7 6 6 7 8 8 9 8 10 7 4 3 6 7 8 9 9 11 10 11 9 8 9 10 12 15 17 18 18 19 18 18 18 18 20 18 18 18 18 19 17
12 11 13 13 18 16 10 12 13 15 19 22 23 22 22 20 19 20 18 16 10 6 8 8 9 10 11 11 12 11 12 11 9 10 9 9 9 9 9 9 11 12 11 12 12 14 15 13 18 17 17 18 17 17 16 18 18 16 18 18 17 18 17
12 12 11 12 14 10 12 14 15 19 17 13 16 22 24 24 20 15 17 18 12 8 12 9 9 10 12 11 6 11 13 13 11 11 10 11 11 12 11 13 13 13 13 13 14 13 12 14 15 17 18 18 18 19 19 19 19 18 17 17 18 18 17
14 12 12 15 11 15 16 16 15 9 8 9 11 12 18 23 11 9 9 10 11 9 9 10 9 9 10 9 2 15 14 16 13 13 12 13 13 13 14 15 16 15 15 15 15 13 13 14 15 16 18 19 19 18 19 18 19 20 19 16 18 19 19
13 14 11 11 12 13 14 3 8 6 6 6 4 3 13 11 9 5 5 5 2 6 9 10 10 10 11 11 9 13 16 16 16 15 14 14 14 14 16 17 16 16 16 14 15 14 14 14 17 15 18 18 19 18 19 19 20 20 20 20 19 19 19
13 13 12 11 11 12 4 7 9 10 8 10 7 3 7 1 3 3 4 1 3 5 7 8 9 9 11 13 2 14 17 17 16 16 16 16 16 16 16 17 19 19 17 16 17 18 15 15 16 17 17 20 20 19 19 20 20 20 21 20 20 20 21
14 12 12 13 10 8 3 6 8 10 12 11 5 6 4 2 7 3 2 3 4 4 6 7 5 4 6 7 10 14 16 15 15 15 16 17 18 18 18 17 18 19 19 17 16 16 16 15 16 17 18 18 18 17 20 20 20 21 21 21 20 19 18
16 17 13 12 12 4 6 8 11 9 9 8 5 6 4 8 6 5 4 3 3 4 4 6 4 3 5 9 11 13 14 15 16 16 16 16 16 17 18 18 20 19 18 16 16 14 12 12 15 17 17 18 18 17 17 17 20 21 20 18 17 17 17
15 15 16 15 10 3 7 8 10 5 5 6 3 5 10 12 5 4 4 4 4 4 4 4 6 6 8 10 11 12 13 14 15 16 18 19 19 18 18 19 20 18 17 15 15 13 12 13 14 15 15 14 14 13 16 19 20 18 16 17 17 17 17
11 12 14 12 13 3 10 11 4 8 4 3 1 8 12 9 7 5 3 4 3 4 4 4 6 8 10 11 12 13 13 15 17 18 19 19 19 19 20 20 21 20 18 18 14 12 12 12 13 15 17 14 13 15 18 17 16 15 16 16 17 16 16
11 11 10 7 5 5 7 7 3 3 3 3 4 7 9 12 8 2 4 3 4 5 4 6 6 7 9 11 13 13 14 15 16 17 18 18 18 20 20 20 20 22 20 18 15 10 12 10 12 12 12 11 12 14 16 12 12 13 15 15 15 16 15
4 5 5 6 7 8 7 6 4 2 0 2 5 4 6 9 10 12 6 4 6 7 6 6 7 8 10 11 12 13 14 15 15 17 18 18 18 18 18 20 20 20 20 15 10 10 8 8 9 9 9 12 12 13 12 10 10 13 14 15 15 15 16
7 11 13 9 8 8 9 6 1 1 3 3 5 6 8 7 9 10 11 10 9 8 7 7 7 8 10 11 11 13 14 14 14 15 17 18 18 18 19 19 21 22 19 11 9 8 7 8 9 8 10 13 13 12 12 11 12 12 14 14 14 14 15
7 4 6 6 8 11 10 5 1 1 2 5 5 7 8 7 7 12 11 11 10 10 9 6 7 9 10 11 10 11 12 14 15 15 17 17 18 17 18 20 19 17 14 4 4 2 6 9 9 10 10 11 10 11 11 13 13 12 13 13 13 13 13
6 6 7 9 13 11 8 0 3 5 7 7 8 7 7 9 9 9 12 12 11 9 8 7 8 8 9 10 10 10 10 13 13 14 16 18 18 18 16 17 17 15 13 10 10 11 12 12 5 8 10 10 12 12 13 15 13 13 13 13 13 13 14
7 10 6 11 13 6 5 4 10 8 8 10 11 10 9 9 10 9 11 10 10 11 10 7 6 7 8 9 10 11 10 11 12 12 15 16 16 15 17 18 16 13 13 14 13 11 11 9 11 12 4 7 12 12 12 13 12 13 13 14 13 14 13
4 4 8 11 8 5 9 11 11 12 12 12 12 11 11 10 9 9 10 11 11 11 10 8 7 8 7 8 9 11 10 11 13 11 12 15 15 15 15 13 14 13 15 15 15 14 12 11 11 9 10 10 1 9 11 10 12 12 13 13 12 12 12
7 9 10 9 8 9 9 11 12 13 12 12 12 11 11 10 9 9 10 11 10 10 11 8 7 6 7 8 8 9 10 11 13 13 11 13 13 15 15 15 15 16 15 14 14 15 12 10 9 9 9 8 9 8 1 8 11 11 12 11 9 10 10
8 8 10 10 9 10 11 12 12 12 11 11 12 12 11 11 10 9 10 10 11 10 10 12 8 7 6 7 8 8 9 11 14 14 11 12 12 12 13 11 12 14 14 13 12 11 11 11 9 10 11 10 8 7 8 3 8 10 11 9 9 9 10
9 10 10 10 11 10 9 10 11 11 10 11 12 12 12 11 11 9 10 10 9 10 10 9 10 7 6 6 7 8 8 9 11 14 14 12 13 12 13 12 11 12 11 11 10 11 11 13 13 13 13 13 10 8 6 7 3 10 9 8 9 8 8
Wind_Direction
216 202 206 207 229 233 202 210 215 222 226 233 247 263 268 262 246 240 221 214 218 239 239 229 222 221 215 221 229 225 223 205 180 178 180 183 191 191 192 197 195 201 206 208 200 188 186 184 185 186 183 184 184 182 182 185 184 181 181 182 181 182 183
233 267 209 214 216 243 244 217 214 216 226 244 238 249 237 239 249 241 223 224 213 203 227 204 213 222 221 210 214 208 223 216 185 185 188 192 193 191 192 185 193 196 196 199 197 191 188 186 185 186 184 184 183 184 182 183 186 184 182 181 181 180 181
261 230 241 227 222 215 241 250 188 213 197 212 223 247 238 231 228 244 226 238 244 207 214 188 205 209 210 216 209 211 208 208 203 188 187 192 192 195 197 192 194 197 199 204 197 193 192 188 186 186 184 183 183 184 183 184 185 186 183 182 181 181 181
252 258 217 231 224 218 223 243 259 248 237 219 214 218 249 251 251 228 231 224 233 223 212 203 211 205 206 209 212 210 210 205 204 206 199 185 182 196 204 190 187 187 197 213 196 193 192 189 186 188 185 185 185 184 182 185 185 184 184 184 181 181 183
234 240 217 227 223 225 207 226 233 229 244 246 235 213 222 231 240 244 250 222 224 232 220 217 219 205 205 207 211 210 210 211 209 211 209 198 189 194 195 194 188 188 196 206 207 199 193 190 188 188 186 187 186 184 184 184 183 184 185 186 182 183 182
230 240 230 220 230 231 235 222 223 220 220 224 220 227 208 222 231 239 244 250 249 203 203 213 220 211 196 205 209 211 213 217 216 203 206 206 197 196 194 190 185 179 192 202 212 218 198 190 187 189 189 188 187 188 186 185 184 186 186 185 184 182 183
251 236 234 236 237 239 248 239 231 233 232 227 226 227 216 215 230 242 249 258 241 305 149 188 209 223 200 206 206 208 210 215 221 213 202 203 206 198 197 199 181 178 187 189 195 208 200 193 188 189 190 189 189 189 188 186 185 187 187 186 184 182 184
279 283 291 279 279 300 301 272 264 263 234 226 239 233 225 227 209 215 224 232 251 157 103 209 239 229 206 191 189 215 212 206 212 213 209 200 197 201 206 201 192 173 185 192 194 196 204 194 190 191 191 191 191 190 189 187 189 187 187 186 183 182 184
241 252 251 257 249 244 240 239 226 232 251 236 227 240 239 243 228 221 209 223 212 171 128 165 350 175 208 204 202 202 212 218 218 201 207 205 189 195 204 204 200 180 185 180 181 191 195 195 194 191 192 193 193 190 190 190 190 187 187 185 183 183 187
230 219 217 217 225 229 238 242 248 240 237 240 228 224 230 242 256 289 253 223 216 228 173 157 204 265 284 264 206 188 221 227 209 205 201 203 196 187 197 202 203 189 167 176 176 187 191 195 196 190 191 194 194 192 192 192 189 186 186 185 185 183 186
257 259 3 301 316 298 280 279 260 230 223 235 241 248 246 230 231 247 255 257 219 211 221 213 204 214 228 220 243 255 196 189 229 238 42 259 197 184 188 194 195 208 165 173 181 186 192 196 196 191 192 193 195 193 194 193 189 187 185 185 184 184 186
257 273 282 296 302 284 283 280 284 295 284 254 231 231 239 252 244 238 235 242 262 286 258 177 211 207 206 220 206 203 207 208 200 210 210 270 127 174 169 182 201 196 190 170 186 187 192 194 196 194 193 194 195 194 194 193 190 187 185 185 183 184 185
256 261 272 273 278 287 287 282 284 283 291 281 236 241 239 240 236 237 223 237 242 241 254 169 93 24 323 95 40 20 79 113 72 44 130 197 176 177 178 185 190 200 203 208 179 187 192 195 196 196 194 195 195 195 196 195 194 190 185 184 184 184 184
266 266 270 275 274 273 266 264 266 259 256 264 256 253 247 243 240 242 239 237 236 227 201 45 340 355 346 16 294 169 140 73 44 26 339 182 182 176 190 188 190 198 197 194 190 185 192 196 195 198 195 193 194 194 193 194 197 191 184 185 184 184 185
260 259 262 262 262 260 260 260 258 258 256 245 235 241 250 250 248 246 247 239 237 236 251 110 322 300 302 286 347 37 39 63 72 20 353 360 11 9 8 17 2 358 203 204 198 193 194 199 200 200 196 193 194 195 192 193 196 192 185 185 186 187 185
264 252 256 263 264 263 262 258 253 250 246 245 240 242 239 243 236 230 232 233 238 237 240 286 328 286 284 266 283 213 38 27 356 333 338 1 352 348 359 352 337 329 307 234 208 205 201 205 206 205 201 196 194 196 192 194 192 192 188 187 188 187 183
257 254 252 258 259 262 254 244 242 243 245 248 245 240 245 246 246 233 227 227 244 243 253 310 289 289 290 286 9 12 351 60 16 322 319 338 348 345 345 333 313 320 310 298 249 212 212 210 208 207 203 201 197 197 193 192 191 192 190 188 184 183 183
261 270 261 250 257 249 246 247 241 237 240 237 240 242 245 245 239 243 237 231 235 269 347 313 327 303 312 326 318 320 318 22 39 325 342 347 348 336 330 319 316 306 310 303 298 280 233 213 216 209 206 203 199 200 196 190 190 191 188 185 183 183 183
250 253 265 262 246 248 266 267 263 250 239 236 241 246 243 247 240 239 246 249 237 314 334 321 312 313 306 309 310 325 34 27 7 355 345 343 335 325 310 307 309 308 303 284 278 274 277 243 218 213 207 204 199 199 197 192 193 189 187 186 182 182 182
258 249 244 254 249 271 267 259 260 253 257 268 263 249 240 238 237 239 246 249 252 295 306 316 305 313 309 305 341 47 37 22 6 354 338 329 325 320 317 308 300 293 293 296 288 279 265 264 236 211 208 204 199 196 197 193 190 189 187 185 180 181 181
246 241 242 247 278 270 251 244 247 268 261 257 257 259 243 226 218 226 246 248 252 265 302 300 314 312 312 298 205 39 22 6 3 347 338 330 324 319 313 309 305 301 293 284 281 272 261 253 249 216 207 202 200 195 195 192 188 189 187 183 181 180 183
240 244 243 244 244 248 240 208 24 17 332 314 297 230 270 214 192 202 221 240 278 309 309 295 315 328 275 260 241 25 5 357 351 345 340 335 327 321 316 311 304 300 296 297 290 281 259 246 244 228 205 200 196 193 193 190 187 188 187 186 184 181 184
239 241 242 238 240 244 63 345 359 3 347 324 321 311 254 203 231 107 298 316 30 341 307 302 321 286 254 242 333 1 353 345 347 341 341 333 332 324 318 312 310 308 313 312 300 292 272 245 236 232 209 198 193 191 190 189 187 188 188 186 184 183 185
231 236 231 236 229 251 19 9 348 348 340 322 290 222 216 14 300 348 341 48 19 354 322 304 286 341 274 327 347 340 341 340 339 344 336 335 330 328 320 315 314 316 309 294 281 269 259 241 234 225 209 195 192 186 189 189 185 189 189 186 185 181 180
223 226 236 238 244 207 13 344 338 353 345 29 253 224 69 334 1 8 13 355 18 340 319 333 282 63 351 328 330 329 338 339 340 340 337 332 331 325 322 319 321 308 298 290 283 269 254 240 232 220 206 194 188 185 187 189 187 190 188 180 178 176 180
216 222 230 233 236 79 330 341 323 30 322 237 238 10 313 297 319 26 2 10 4 318 336 352 347 330 328 331 332 335 340 342 339 339 338 336 333 330 324 319 312 311 307 294 285 270 252 235 221 217 205 190 183 177 185 192 190 187 176 175 177 177 180
228 229 237 234 240 108 350 345 289 44 296 23 321 310 322 333 359 348 17 352 355 332 336 331 320 318 327 333 337 339 345 347 345 342 339 336 332 327 324 322 320 315 313 301 281 259 247 227 212 216 200 178 174 176 190 192 186 178 172 173 175 176 179
234 220 224 233 357 0 356 11 356 38 54 332 328 1 318 331 322 340 326 332 336 330 341 335 333 332 334 339 342 344 348 345 343 343 336 331 328 327 324 323 317 317 310 295 274 251 244 216 205 216 193 166 174 180 189 183 182 172 167 169 172 174 177
318 298 333 327 332 349 360 3 22 101 88 319 322 330 296 316 333 332 300 301 315 322 328 332 343 342 346 340 348 350 347 341 343 341 335 328 323 318 316 318 316 313 307 291 281 257 232 181 201 200 184 170 167 177 180 177 179 167 166 168 172 174 175
310 284 264 289 306 325 338 332 288 359 327 335 321 305 312 311 314 323 319 308 312 314 316 325 342 341 337 342 355 350 345 341 339 338 334 329 326 323 329 330 326 319 313 274 284 237 175 186 191 192 185 177 176 176 175 176 178 163 167 166 171 172 174
318 266 39 332 327 329 315 338 86 345 335 298 305 300 300 309 310 302 310 304 305 306 310 316 337 330 341 346 356 353 344 340 339 336 333 330 327 324 324 322 319 324 338 303 248 248 172 188 184 191 183 169 165 170 170 174 174 161 166 164 168 170 172
287 294 330 326 320 305 291 42 14 331 315 313 301 295 290 292 289 292 301 306 298 303 298 312 320 332 345 348 351 349 349 341 342 337 335 334 328 325 320 317 329 348 358 17 34 36 31 19 340 203 182 184 181 174 171 179 169 163 164 166 168 169 169
294 278 280 327 317 296 149 69 338 324 314 313 306 297 293 282 280 283 291 303 303 301 297 293 305 322 348 343 352 344 356 342 338 337 337 333 323 318 326 325 327 357 10 26 36 38 41 42 37 24 32 177 167 180 175 184 155 167 168 170 167 166 167
302 343 340 338 330 314 325 324 320 319 315 303 297 296 291 290 286 285 295 303 306 297 290 299 312 327 333 344 345 343 352 345 333 330 331 332 326 326 326 328 327 4 15 14 24 27 32 36 34 30 41 35 38 178 180 174 161 175 173 171 168 169 170
305 327 327 325 307 291 293 308 309 304 307 308 302 300 297 293 287 286 289 297 301 306 303 297 298 313 330 331 337 344 351 348 341 335 328 326 329 331 331 333 343 5 11 12 19 21 15 14 28 27 37 44 49 27 359 163 164 173 170 168 166 173 169
304 335 324 324 316 307 307 306 306 308 311 311 307 301 299 297 292 285 280 284 290 292 300 300 303 311 315 333 336 344 357 356 346 336 341 333 333 329 334 341 358 2 7 7 17 21 13 11 19 35 38 29 27 41 32 347 186 169 172 161 173 167 170
320 321 326 327 315 311 317 318 315 306 307 306 301 298 300 301 293 286 280 279 279 286 285 288 298 297 307 320 334 347 2 360 347 340 336 332 334 340 343 348 11 6 4 359 16 35 28 29 23 23 30 20 7 26 36 47 146 167 159 161 169 168 166